Location: Augustenthal
(51.7167°N, 10.2833°E)
Time: 20:37:02
(UTC+00:00)

Meteor 1-11 Rocket - Pass Details

Date: 18 May 2021
Orbit: 831 x 916 km, 81.2° (Epoch: 20 June)

Event Time Altitude Azimuth Distance (km) Brightness Sun altitude
Rises 19:58:36 0° 347° (NNW) 3,565 8.0 -6.7°
Reaches altitude 10° 20:01:06 10° 348° (NNW) 2,614 7.3 -6.9°
Maximum altitude 20:07:06 86° 76° (ENE) 914 3.9 -7.6°
Drops below altitude 10° 20:12:58 10° 167° (SSE) 2,555 5.7 -8.2°
Enters shadow 20:13:58 - 168° (SSE) 2,938 6.0 -8.3°
